カタログに戻る

STARLINK-37331

運用中通信SSO
NORAD 68738·PAYLOAD·🇺🇸 United States

打ち上げ Apr 15, 2026 から Vandenberg Space Force Base

Loading…

次のパス (今後24時間)

TLE

最新Source: CelesTrak SupGP

元期: Sep 14, 2026, 23:15 UTC

1 68738C 26082L   26257.96923611  .00088345  00000+0  27434-2 0  2575
2 68738  97.2848 120.1688 0001858  93.7451 354.6866 15.33381967    14

AllMySatでSTARLINK-37331をリアルタイム追跡

Download on the App Store